Weather in Seattle

United States     47°36′28″N   122°19′42″W
temp.,
°C
wind,
m/s
gust,
m/s
humid.,
%
clouds,
%
prec.,
mm/h
press.,
hPa
HPBL,
m
20 may, fri
fri2023:00+7ne12776 0.0 102551
02:00+5se118569 0.0 102629
05:00+5sse118145 0.0 102614
08:00+9ene017115 0.0 1026419
11:00+13n125598 0.0 10251352
14:00+15n235069 0.0 10231519
17:00+16n34431 0.0 10211490
20:00+12nnw24630 0.0 1021228
21 may, sat
sat2123:00+8ne22790 0.0 102273
02:00+7ene11850 0.0 102211
05:00+6ene00890 0.0 102310
08:00+10n12734 0.0 1023346
11:00+16n22512 0.0 10221004
14:00+19nnw33400 0.0 10211538
17:00+19nnw44350 0.0 1021971
20:00+15nnw255249 0.0 1021189
22 may, sun
sun2223:00+10ne11700 0.0 102216
02:00+9ese11800 0.0 102311
05:00+7s11870 0.0 102410
08:00+12s00680 0.0 1024262
11:00+18wnw1243100 0.0 1023909
14:00+21nw1133100 0.0 10221610
17:00+21n1231100 0.0 10202020
20:00+16n3651100 0.0 1021205
23 may, mon
mon2323:00+12e1162100 0.0 102225
02:00+10s117619 0.0 102234
05:00+8s23856 0.0 102373
08:00+11s246499 0.0 1023514
11:00+16sw2348100 0.0 10221288
14:00+20wsw2337100 0.0 10201922
17:00+18nw2348100 0.0 1019921
20:00+15n236199 0.0 1019206
24 may, tue
tue2423:00+12e017299 0.0 1020448
02:00+10s2379100 0.0 1020458
05:00+7sse248917 0.0 1021223
08:00+10s347459 0.0 1021630
11:00+13ssw335822 0.0 1020980
14:00+18ssw224338 0.0 10181328
17:00+19ssw2237100 0.0 10161583
20:00+16sw2452100 0.0 1016168